Regional Weather Roundup
Issued by NWS

Home | Current Version | Previous Version | Graphics & Text | Print | Product List | Glossary Off
Versions: 1 2 3 4 5 6 7 8 9 10 11 12 13 14 15 16 17 18 19 20 21 22 23 24 25 26 27 28 29 30 31 32 33 34 35 36 37 38 39 40 41 42 43 44 45 46 47 48 49 50

000
ASUS43 KTOP 022008
RWRKS

WEATHER ROUNDUP FOR KANSAS
NATIONAL WEATHER SERVICE GOODLAND KS
300 PM CDT THU JUL 02 2015

NOTE:  "FAIR" INDICATES FEW OR NO CLOUDS BELOW 12,000 FEET WITH NO
SIGNIFICANT WEATHER AND/OR OBSTRUCTIONS TO VISIBILITY.

KSZ001>006-013>018-027>032-041>047-022100-
NORTHWEST KANSAS

CITY           SKY/WX    TMP DP  RH WIND       PRES   REMARKS
GOODLAND       MOSUNNY   83  58  42 N12G24    30.08F
HAYS           PTSUNNY   77  63  61 W7        29.99S
HILL CITY      LGT RAIN  87  60  40 N10       29.99F
RUSSELL        CLOUDY    77  70  79 SW6       29.97S
$$

KSZ061>065-074>080-084>089-022100-
SOUTHWEST KANSAS

CITY           SKY/WX    TMP DP  RH WIND       PRES   REMARKS
DODGE CITY     CLOUDY    78  67  68 E8        30.02R
ELKHART          N/A     92  59  33 N9          N/A
GARDEN CITY    CLOUDY    80  68  66 E8        30.01F
GREAT BEND     CLOUDY    68  63  83 SW10      30.03R
LIBERAL        MOSUNNY   88  63  42 NE8       30.01F
PRATT          CLOUDY    75  68  78 N3        29.97S
$$

KSZ066>073-081>083-090>101-022100-
SOUTHEAST KANSAS

CITY           SKY/WX    TMP DP  RH WIND       PRES   REMARKS
CHANUTE        CLOUDY    81  71  71 NE9       29.91S
COFFEYVILLE    CLOUDY    83  72  69 N12       29.88S
HUTCHINSON     CLOUDY    77  72  84 N9        29.95R
MEDICINE LODGE   N/A     82  69  64 CALM      29.92S
NEWTON         CLOUDY    75  68  78 N9        29.95S
PARSONS        CLOUDY    81  73  76 N5        29.91S
WICHITA INTL   CLOUDY    77  72  84 CALM      29.91R
WICHITA JABRA  CLOUDY    75  72  90 NE5       29.91R
WICHITA MCCONL CLOUDY    75  72  88 E2        29.92R
WINFIELD       CLOUDY    80  70  71 E8        29.91F
$$

KSZ007>012-019>026-033>040-048>060-102>105-022100-
NORTHEAST KANSAS

CITY           SKY/WX    TMP DP  RH WIND       PRES   REMARKS
CONCORDIA      PTSUNNY   80  71  74 W5        29.93F
EMPORIA        CLOUDY    80  70  71 NE5       29.91F
LAWRENCE       CLOUDY    73  69  87 NE8       29.92F
MANHATTAN      PTSUNNY   78  71  79 CALM      29.92F
MARYSVILLE     LGT RAIN  72  70  94 SE3       29.94F
OLATHE IND     CLOUDY    74  68  81 E3        29.93F
OLATHE EXE     CLOUDY    72  68  87 NE9       29.92S
SALINA         CLOUDY    78  71  79 S5        29.93F
TOPEKA BILLARD CLOUDY    75  70  84 NE7       29.92F
TOPEKA FORBES  CLOUDY    77  68  73 E5        29.92F
$$



USA.gov is the U.S. government's official web portal to all federal, state and local government web resources and services.